This demonstration page uses our WeatherBlox Daily Observations layout. Learn more.

Left ArrowRight Arrow

53.62937, 11.41316

Hourly Observations for May 7, 2021

Temp ( °F °C ) Dew Point ( °F °C ) Humidity (%) Winds ( mph kmh ) Pressure ( in mb ) Visibility ( mi km ) Precip ( " mm )
6:20 am 06:20 Mostly Sunny 36 2 32 undefined 87 87 VRB 1 2 29.71 1006 7 11 N/A
6:50 am 06:50 Mostly Sunny 37 3 34 1 87 87 VRB 2 4 29.71 1006 7 11 N/A
7:20 am 07:20 Mostly Sunny 41 5 36 2 81 81 SW 6 9 29.71 1006 30 48 N/A
7:50 am 07:50 Mostly Sunny 41 5 36 2 81 81 SW 7 11 29.71 1006 30 48 N/A
8:20 am 08:20 Mostly Sunny 41 5 36 2 81 81 SW 10 17 29.74 1007 30 48 N/A
8:50 am 08:50 Partly Cloudy 45 7 37 3 76 76 SW 10 17 29.74 1007 30 48 N/A
9:20 am 09:20 Partly Cloudy 45 7 36 2 71 71 SW 10 17 29.74 1007 30 48 N/A
9:50 am 09:50 Partly Cloudy 45 7 34 1 66 66 WSW 9 15 29.74 1007 30 48 N/A
10:20 am 10:20 Partly Cloudy with Showers Nearby 46 8 34 1 62 62 SW 12 19 29.74 1007 30 48 N/A
10:50 am 10:50 Partly Cloudy with Showers Nearby 45 7 36 2 71 71 W 9 15 29.77 1008 30 48 N/A
11:20 am 11:20 Partly Cloudy with Light Showers 46 8 32 undefined 57 57 W 8 13 29.77 1008 30 48 N/A
11:50 am 11:50 Partly Cloudy with Showers Nearby 46 8 37 3 71 71 WSW 8 13 29.80 1009 30 48 N/A
12:20 pm 12:20 Partly Cloudy with Showers Nearby 48 9 37 3 66 66 W 7 11 29.80 1009 30 48 N/A
12:50 pm 12:50 Partly Cloudy with Showers Nearby 48 9 36 2 62 62 WSW 9 15 29.80 1009 30 48 N/A
1:20 pm 13:20 Partly Cloudy with Light Showers 41 5 37 3 87 87 WSW 8 13 29.83 1010 30 48 N/A
1:50 pm 13:50 Mostly Sunny 45 7 39 4 81 81 WSW 7 11 29.83 1010 30 48 N/A
2:20 pm 14:20 Mostly Cloudy with Light Showers 45 7 37 3 76 76 VRB 8 13 29.83 1010 30 48 N/A
2:50 pm 14:50 Mostly Cloudy 46 8 36 2 66 66 WSW 6 9 29.83 1010 30 48 N/A
3:20 pm 15:20 Mostly Cloudy 48 9 36 2 62 62 WSW 12 19 29.86 1011 30 48 N/A
3:50 pm 15:50 Mostly Cloudy 48 9 34 1 58 58 WSW 8 13 29.86 1011 30 48 N/A
4:20 pm 16:20 Mostly Sunny 50 10 32 undefined 50 50 WSW 12 19 29.86 1011 7 11 N/A
4:50 pm 16:50 Mostly Sunny 50 10 32 undefined 50 50 WSW 13 20 29.86 1011 7 11 N/A
5:20 pm 17:20 Mostly Sunny 50 10 27 -3 40 40 WSW 12 19 29.86 1011 7 11 N/A
5:50 pm 17:50 Mostly Sunny 48 9 32 undefined 54 54 WSW 13 20 29.89 1012 7 11 N/A
6:20 pm 18:20 Partly Cloudy 46 8 36 2 66 66 WSW 9 15 29.89 1012 30 48 N/A
6:50 pm 18:50 Partly Cloudy with Showers Nearby 45 7 37 3 76 76 WSW 14 22 29.92 1013 30 48 N/A
7:20 pm 19:20 Partly Cloudy with Showers Nearby 46 8 36 2 66 66 WSW 10 17 29.92 1013 30 48 N/A
7:50 pm 19:50 Partly Cloudy with Showers Nearby 46 8 36 2 66 66 WSW 7 11 29.92 1013 30 48 N/A
8:20 pm 20:20 Partly Cloudy 46 8 37 3 71 71 W 6 9 29.92 1013 30 48 N/A
8:50 pm 20:50 Mostly Sunny 45 7 34 1 66 66 WSW 14 22 29.95 1014 30 48 N/A
9:20 pm 21:20 Mostly Clear 45 7 36 2 71 71 WSW 14 22 29.95 1014 30 48 N/A
9:50 pm 21:50 Mostly Clear 43 6 36 2 76 76 WSW 6 9 29.95 1014 7 11 N/A

Powered by AerisWeather